Terminal Aerodrome Forecast
Issued by NWS

Home | Current Version | Previous Version | Text Only | Print | Product List | Glossary On
Versions: 1 2 3 4 5 6 7 8 9 10 11 12 13 14 15 16 17 18 19 20
000
FTUS42 KMHX 222300 RRA
TAFISO
TAF
KISO 222342Z 2300/2324 18003KT P6SM SCT009 BKN120
     FM230500 00000KT 2SM BR BKN005
     FM231300 22006KT P6SM SCT025
      AMD LTD TO CLD VIS AND WIND=

USA.gov is the U.S. government's official web portal to all federal, state and local government web resources and services.